Tracking 19476 objects as of 17-Jan-2019
HD Live streaming from Space Station
objects crossing your sky now

OPS 6073 (DMSP 4A F2)

Track OPS 6073 (DMSP 4A F2) now!
10-day predictions
OPS 6073 (DMSP 4A F2) is classified as:


NORAD ID: 2669
Int'l Code: 1967-010A
Perigee: 773.8 km
Apogee: 844.0 km
Inclination: 99.0 °
Period: 100.9 minutes
Semi major axis: 7179 km
RCS: 0.6644 m2 (medium)
Launch date: February 8, 1967
Source: United States (US)
Launch site: AIR FORCE WESTERN TEST RANGE (AFWTR)
aabbcc
Your satellite tracking list
Your tracking list is empty




NASA's NSSDC Master Catalog

Two Line Element Set (TLE):
1  2669U 67010A   19016.74243389 -.00000024 +00000-0 +94233-5 0  9997
2  2669 098.9811 266.5820 0048851 294.6186 064.9909 14.27003373697944
Source of the keplerian elements: AFSPC